Location: downtown San Diego
(32.7310°N, 117.1990°W)
Time: 19:01:22
(UTC-08:00)

Daily predictions for brighter satellites

Satellite Brightness Start Highest point End
(mag) Time Altitude Azimuth Time Altitude Azimuth Time Altitude Azimuth
Meteor 1-18 Rocket 4.2 17:02:06 10° S 17:07:36 65° E 17:13:06 10° NNE
Cosmos 1674 Rocket 3.6 17:09:22 10° S 17:13:40 59° E 17:18:02 10° NNE
AQUARIUS 4.2 17:09:25 10° SSE 17:13:48 57° ENE 17:18:13 10° N
Cosmos 1339 Rocket 4.4 17:09:08 10° N 17:15:12 67° E 17:21:12 10° SSE
Cosmos 2151 Rocket 3.6 17:11:01 10° N 17:15:30 64° E 17:19:56 10° SSE
Shenzhou-11 Module 1.9 17:15:49 10° WSW 17:18:43 72° NNW 17:21:30 11° NE
GOES 2 Rocket 4.4 17:14:09 10° W 17:19:47 45° SSW 17:24:15 10° ESE
Okean 1 3.3 17:16:23 10° S 17:20:24 88° E 17:24:28 10° N
SEDSat Delta rocket 4.1 17:13:48 10° W 17:20:34 81° S 17:26:47 10° E
BREEZE-M R/B 3.4 17:23:31 10° NW 17:27:36 32° NNE 17:31:00 10° E
Delta 2 Rocket 3.4 17:24:46 10° W 17:28:24 56° N 17:31:53 14° ENE
Okean-O 4.0 17:26:02 10° S 17:30:14 43° W 17:34:28 10° NNW
CZ-4 R/B 2.0 17:26:51 10° SE 17:30:41 36° ENE 17:34:34 10° N
Cosmos 2322 3.9 17:25:19 10° S 17:30:46 53° ESE 17:36:17 10° NNE
Ariane Rocket 3.8 17:29:57 10° SE 17:34:13 28° ENE 17:38:30 10° NNE
GPS 2-04 Rocket1 2.8 17:32:37 10° WNW 17:36:48 83° SSW 17:41:02 10° ESE
Lacrosse 5 rocket 1.9 17:32:31 10° SW 17:37:07 69° NW 17:41:37 11° NNE
SL-16 R/B 3.8 17:33:04 10° SW 17:38:05 32° WNW 17:43:08 10° N
Cosmos 2237 4.2 17:36:27 10° SSW 17:42:06 80° ESE 17:47:48 10° NNE
Meteor 1-19 Rocket 4.1 17:37:31 10° S 17:42:58 76° E 17:48:29 10° NNE
DELTA 2 R/B (1) 3.9 17:38:09 10° WNW 17:43:43 70° SSW 17:49:14 10° SE
SL-23 DEB 4.3 17:37:57 10° SW 17:44:22 89° NW 17:47:17 18° NE
Cosmos 968 Rocket 3.8 17:39:13 10° SSW 17:44:27 72° WNW 17:49:43 10° NNE
Meteor 2-9 Rocket 4.5 17:44:14 10° N 17:49:38 44° ENE 17:54:52 10° SSE
SMAP 4.2 17:47:56 10° S 17:52:23 46° W 17:56:53 10° NNW
Cosmos 1666 3.5 17:49:03 10° NNW 17:52:50 53° W 17:56:35 10° S
COSMO-SKYMED 1 2.5 17:49:29 10° NNE 17:53:50 88° E 17:58:09 10° SSW
YAOGAN 1 2.6 17:52:49 10° SSE 17:57:00 53° ENE 18:01:13 10° N
Cosmos 1975 Rocket 3.3 17:52:50 10° SSE 17:57:02 46° E 18:00:22 15° NNE
Meteor 1-13 Rocket 4.1 17:51:56 10° S 17:57:23 65° E 18:02:50 10° NNE
Cosmos 1821 Rocket 4.0 17:55:55 10° S 18:02:15 81° E 18:08:40 10° N
EPKM 3.5 18:01:06 10° SW 18:02:59 22° SSE 18:04:18 17° SE
Cosmos 1743 3.4 18:01:39 10° NNW 18:05:24 55° W 18:09:08 10° S
H-2A R/B 2.7 18:05:51 10° SSE 18:09:42 88° ENE 18:13:38 10° N
Cosmos 1535 Rocket 4.4 18:04:51 10° S 18:10:55 69° E 18:17:06 10° NNE
BREEZE M DEB (TANK) 4.0 18:08:28 10° NNW 18:11:58 50° NE 18:23:27 10° ESE
Cosmos 2219 Rocket 2.3 18:07:15 10° S 18:12:43 53° ESE 18:15:29 28° NE
Timation 1 Rocket 4.2 18:07:59 10° NNW 18:13:56 67° ENE 18:19:50 10° SSE
Cosmos 1844 Rocket 3.0 18:10:15 10° N 18:15:34 40° ENE 18:18:50 21° ESE
CZ-2C R/B 3.8 18:13:12 23° NNE 18:16:04 60° ESE 18:20:45 10° S
Okean 1 Rocket 3.7 18:15:23 10° NNW 18:19:42 56° W 18:23:56 10° S
COSMOS 2428 2.6 18:14:54 10° SSW 18:20:37 79° ESE 18:24:10 24° NNE
Cosmos 2263 Rocket 4.2 18:18:51 10° NW 18:23:42 29° WSW 18:28:30 10° SSW
Meteor 2-4 Rocket 4.0 18:18:13 10° SSW 18:23:54 68° W 18:29:27 10° N
ATLAS 3B R/B 3.8 18:21:17 10° SSE 18:26:19 25° ESE 18:26:19 25° ESE
DNEPR-1 R/B 4.2 18:24:28 10° SW 18:29:21 74° WNW 18:32:36 27° NNE
ISS -1.5 18:26:45 10° WNW 18:29:27 24° SW 18:32:06 10° S
DMSP B5D1-3 4.5 18:25:53 15° N 18:30:10 84° WNW 18:35:16 10° SSW
GPS 2-05 Rocket1 3.6 18:29:51 10° W 18:32:19 45° WSW 18:32:19 45° WSW
USA 238 DEB 3.8 18:28:17 10° S 18:34:43 50° ESE 18:36:05 44° E
USA 238 3.8 18:28:23 10° S 18:34:49 49° ESE 18:36:10 44° E
FengYun 1-2 T 4.1 18:29:32 10° SSE 18:35:02 83° ENE 18:40:38 10° N
Envisat 2.9 18:30:38 10° SSE 18:35:38 63° ENE 18:40:39 10° N
Cosmos 2123 Rocket 3.9 18:31:42 10° N 18:38:02 71° E 18:44:19 10° SSE
Meteor 1-23 Rocket 4.1 18:35:01 10° S 18:40:49 84° E 18:44:00 28° N
NOSS 3-2 (A) 4.3 18:36:44 10° S 18:40:12 28° SE 18:40:12 28° SE
Cosmos 2360 Rocket 4.3 18:38:07 10° WSW 18:42:27 23° WNW 18:46:48 10° N
Cosmos 2333 Rocket 2.1 18:39:55 10° SSW 18:45:36 85° WNW 18:47:24 46° NNE
CZ-3B Rocket 4.2 18:42:40 10° SW 18:46:27 24° SSE 18:50:12 18° SE
MOS 1 4.3 18:57:33 10° S 19:03:15 79° WSW 19:08:58 10° NNW
Cosmos 2237 Rocket 2.9 19:00:07 10° S 19:03:43 40° S 19:03:43 40° S
SEDSat Delta rocket 4.0 19:00:45 10° W 19:07:05 59° SSW 19:07:24 58° S
Cosmos 1844 4.1 19:05:13 10° NNW 19:09:30 53° NNW 19:09:30 53° NNW
Cosmos 1605 Rocket 4.5 19:09:15 10° SSW 19:15:14 57° W 19:18:29 28° NNW
Lacrosse 5 rocket 4.3 19:15:38 10° NW 19:17:06 11° NNW 19:17:19 11° NNW
Cosmos 2219 Rocket 4.4 19:53:08 10° W 19:56:56 18° WNW 19:57:16 18° NW
ATLAS 3B R/B 4.3 20:10:15 10° SW 20:13:38 29° WSW 20:13:38 29° WSW
